[[{"header":{"parameterUnit":"m.s-1","parameterCategory":1,"la1":30.2991,"la2":30.254,"lo1":-89.0895,"lo2":-89.0444,"dx":0.0017,"dy":0.0017,"nx":28,"ny":28,"refTime":"2022-12-05T15:00:00:Z","depth":0,"parameterNumber":2,"parameterNumberName":"U-component_of_WINDS"},"data":[0,0,0,0,0,0,0,0,0,0,0,0,0,0,0,0,0,0,0,0,0,0,0,0,0,0,0,0,0,0,0,0,0,0,0,0,0,0,0,0,0,0,0,0,0,0,0,0,0,0,0,0,0,0,0,0,0,0,-0.742,-0.742,0,-0.7475,-0.7475,-0.7476,-0.7507,-0.7507,-0.7508,-0.7508,-0.7565,-0.7567,-0.7568,0,0,0,0,0,0,0,0,0,0,0,0,0,-0.7343,-0.7344,-0.742,-0.742,-0.7421,-0.7475,-0.7475,-0.7476,-0.7507,-0.7507,-0.7508,-0.7508,-0.7565,-0.7566,-0.7568,0,0,0,0,0,0,0,0,0,0,0,0,0,-0.7385,-0.7345,-0.742,-0.7443,-0.7446,-0.7474,-0.7475,-0.7476,-0.7507,-0.7507,-0.7508,-0.7508,-0.7564,-0.7566,-0.7568,-0.7578,0,0,-0.7575,-0.7576,0,0,0,0,0,0,0,0,-0.7383,-0.7388,-0.7439,-0.7441,-0.7445,-0.7484,-0.747,-0.7511,-0.7507,-0.7484,-0.7508,-0.7508,-0.7538,-0.7543,-0.7553,-0.7581,-0.7584,-0.7575,-0.7576,-0.7577,-0.7578,0,0,0,0,0,0,0,-0.738,-0.7386,-0.7442,-0.744,-0.7443,-0.7451,-0.7457,-0.7477,-0.751,-0.7486,-0.7488,-0.7494,-0.754,-0.755,-0.7554,-0.7584,-0.7575,-0.7577,-0.7578,-0.7579,-0.7624,-0.7624,0,0,0,0,0,0,-0.7373,-0.7383,-0.744,-0.7443,-0.7413,-0.7453,-0.7459,-0.7471,-0.7509,-0.7515,-0.7494,-0.7496,-0.7547,-0.7552,-0.7556,-0.7571,-0.7577,-0.7579,-0.7581,-0.7624,-0.7624,-0.7624,0,0,0,0,0,0,-0.7371,-0.7378,-0.7438,-0.7414,-0.7422,-0.7454,-0.7467,-0.7472,-0.7483,-0.7516,-0.7522,-0.7499,-0.7547,-0.7553,-0.7573,-0.7573,-0.758,-0.7582,-0.7625,-0.7624,-0.7624,-0.7599,0,0,0,0,0,0,-0.7369,-0.7377,-0.7381,-0.7414,-0.7423,-0.7452,-0.7467,-0.7473,-0.7486,-0.7489,-0.7522,-0.7527,-0.7548,-0.7569,-0.7575,-0.7576,-0.7584,-0.7625,-0.7625,-0.7624,-0.76,-0.7598,-0.7596,0,0,0,0,0,-0.7366,-0.7371,-0.7381,-0.7387,-0.7428,-0.7452,-0.7458,-0.7481,-0.7486,-0.7491,-0.7512,-0.7526,-0.7572,-0.7571,-0.7577,-0.7579,-0.7625,-0.7625,-0.7624,-0.7601,-0.7598,-0.7596,0,0,0,0,0,0,-0.7338,-0.7376,-0.7387,-0.7403,-0.7424,-0.7458,-0.7464,-0.7478,-0.7498,-0.7499,-0.7527,-0.7534,-0.7551,-0.7567,-0.7565,-0.7591,-0.76,-0.7601,-0.758,-0.7578,-0.7576,-0.7572,-0.7586,0,0,0,0,0,-0.7334,-0.7349,-0.7382,-0.7393,-0.7404,-0.7432,-0.7443,-0.7459,-0.7482,-0.7491,-0.7514,-0.7536,-0.7556,-0.7568,-0.7588,-0.7603,-0.761,-0.7607,-0.7605,-0.7604,-0.7604,-0.7614,-0.7613,-0.7624,-0.7624,-0.7624,0,0,-0.7325,-0.7348,-0.7356,-0.7388,-0.7407,-0.7423,-0.7439,-0.7455,-0.7468,-0.7494,-0.7513,-0.7531,-0.7558,-0.7575,-0.7584,-0.7589,-0.7603,-0.7604,-0.7602,-0.7604,-0.7614,-0.7612,-0.7612,-0.7624,-0.7624,-0.7624,0,0,-0.7317,-0.7336,-0.7347,-0.7365,-0.7393,-0.7411,-0.7414,-0.7446,-0.7458,-0.7478,-0.7498,-0.7513,-0.7546,-0.7565,-0.7578,-0.7578,-0.7592,-0.7584,-0.7574,-0.7583,-0.7582,-0.7582,-0.7581,-0.7581,-0.7584,-0.7584,-0.7584,0,-0.7303,-0.7328,-0.7352,-0.7367,-0.7381,-0.7405,-0.7417,-0.7433,-0.7466,-0.7475,-0.748,-0.7522,-0.7542,-0.7564,-0.7564,-0.7574,-0.7578,-0.758,-0.758,-0.758,-0.758,-0.758,-0.758,-0.7583,-0.7583,-0.7583,-0.7583,0,-0.7309,-0.7326,-0.7332,-0.7362,-0.7377,-0.739,-0.7417,-0.7429,-0.7443,-0.7461,-0.7482,-0.7506,-0.7532,-0.7538,-0.7553,-0.7562,-0.7565,-0.7575,-0.7584,-0.7577,-0.7578,-0.7578,-0.7581,-0.7582,-0.7582,-0.7582,0,0,-0.7285,-0.7328,-0.733,-0.7344,-0.7376,-0.739,-0.7405,-0.7429,-0.7439,-0.746,-0.7474,-0.7501,-0.7511,-0.7526,-0.7543,-0.7551,-0.7549,-0.7561,-0.7562,-0.7557,-0.7562,-0.7553,-0.7553,-0.7559,-0.7559,-0.7559,-0.7559,0,-0.7281,-0.7308,-0.7331,-0.735,-0.7366,-0.7389,-0.7402,-0.7423,-0.7441,-0.7458,-0.7478,-0.7497,-0.7508,-0.7517,-0.7526,-0.7548,-0.7551,-0.7548,-0.7572,-0.7573,-0.7564,-0.7554,-0.7545,-0.7544,-0.756,-0.756,-0.756,0,-0.7281,-0.7301,-0.7322,-0.7352,-0.736,-0.7371,-0.7395,-0.7411,-0.7436,-0.7448,-0.7465,-0.7483,-0.75,-0.7508,-0.7533,-0.7531,-0.7542,-0.7554,-0.7555,-0.7558,-0.7565,-0.7556,-0.7544,-0.7543,-0.7561,-0.7561,-0.756,0,-0.7261,-0.7293,-0.731,-0.7321,-0.7357,-0.7365,-0.738,-0.7405,-0.7419,-0.744,-0.7449,-0.7472,-0.7485,-0.7503,-0.7527,-0.753,-0.7549,-0.7559,-0.756,-0.7559,-0.7562,-0.7562,-0.7552,-0.757,-0.757,-0.757,-0.757,0,-0.7254,-0.7266,-0.7301,-0.7311,-0.7325,-0.7351,-0.7364,-0.7382,-0.7404,-0.7418,-0.7441,-0.7454,-0.7484,-0.7502,-0.7521,-0.7538,-0.7544,-0.7554,-0.7559,-0.7552,-0.7551,-0.756,-0.756,-0.757,-0.757,-0.757,-0.757,0,-0.7234,-0.7258,-0.7277,-0.731,-0.7319,-0.7327,-0.7356,-0.7367,-0.7386,-0.7404,-0.7409,-0.7439,-0.7461,-0.7486,-0.7516,-0.7529,-0.7545,-0.7552,-0.7536,-0.7539,-0.7538,-0.7538,-0.7533,-0.7534,-0.7552,-0.7552,-0.7551,0,-0.7228,-0.7237,-0.7271,-0.7282,-0.7296,-0.7314,-0.7327,-0.7354,-0.7367,-0.7396,-0.7404,-0.7427,-0.7446,-0.7479,-0.7504,-0.7527,-0.7535,-0.7532,-0.7539,-0.7532,-0.7535,-0.7534,-0.7535,-0.753,-0.753,-0.7529,-0.7529,0,-0.7215,-0.7226,-0.7245,-0.7267,-0.7283,-0.7302,-0.7322,-0.733,-0.7361,-0.7375,-0.7396,-0.7411,-0.7442,-0.7464,-0.7491,-0.7507,-0.7523,-0.7527,-0.7529,-0.7521,-0.7511,-0.7516,-0.7531,-0.7527,-0.7527,-0.7527,-0.7527,-0.7528,-0.7202,-0.7211,-0.7236,-0.7256,-0.7274,-0.7292,-0.7304,-0.7324,-0.7343,-0.7369,-0.7384,-0.7405,-0.7431,-0.7467,-0.7484,-0.7501,-0.7507,-0.7509,-0.751,-0.751,-0.7507,-0.7509,-0.7506,-0.7506,-0.7506,-0.7507,-0.7507,0,-0.7189,-0.7206,-0.7224,-0.7252,-0.7267,-0.7281,-0.7304,-0.7317,-0.7335,-0.7357,-0.7376,-0.7401,-0.7423,-0.745,-0.7474,-0.7483,-0.7491,-0.7489,-0.7488,-0.7492,-0.7501,-0.7497,-0.7482,-0.7482,-0.7482,-0.7482,-0.7482,-0.7482,-0.7185,-0.7201,-0.7216,-0.7241,-0.7259,-0.728,-0.7292,-0.7309,-0.7327,-0.7354,-0.7372,-0.7389,-0.7414,-0.744,-0.7461,-0.7468,-0.7476,-0.7471,-0.7481,-0.7489,-0.7491,-0.7493,-0.749,-0.7473,-0.7473,-0.747,-0.747,-0.747]},{"header":{"parameterUnit":"m.s-1","parameterCategory":1,"la1":30.2991,"la2":30.254,"lo1":-89.0895,"lo2":-89.0444,"dx":0.0017,"dy":0.0017,"nx":28,"ny":28,"refTime":"2022-12-05T15:00:00:Z","depth":0,"parameterNumber":3,"parameterNumberName":"V-component_of_WINDS"},"data":[0,0,0,0,0,0,0,0,0,0,0,0,0,0,0,0,0,0,0,0,0,0,0,0,0,0,0,0,0,0,0,0,0,0,0,0,0,0,0,0,0,0,0,0,0,0,0,0,0,0,0,0,0,0,0,0,0,0,0.7782,0.7782,0,0.7784,0.7784,0.7784,0.7789,0.7789,0.779,0.779,0.7792,0.7792,0.7792,0,0,0,0,0,0,0,0,0,0,0,0,0,0.7782,0.7782,0.7782,0.7782,0.7782,0.7784,0.7784,0.7784,0.7789,0.7789,0.779,0.779,0.7792,0.7792,0.7792,0,0,0,0,0,0,0,0,0,0,0,0,0,0.7783,0.7782,0.7782,0.7785,0.7785,0.7784,0.7784,0.7784,0.7789,0.7789,0.779,0.779,0.7792,0.7792,0.7792,0.7789,0,0,0.7792,0.7792,0,0,0,0,0,0,0,0,0.7783,0.7783,0.7784,0.7785,0.7785,0.7787,0.7785,0.7786,0.7789,0.7788,0.779,0.779,0.779,0.779,0.779,0.7789,0.7789,0.7792,0.7792,0.7792,0.7792,0,0,0,0,0,0,0,0.7783,0.7783,0.7783,0.7784,0.7785,0.7786,0.7786,0.7785,0.7788,0.7788,0.7788,0.7788,0.779,0.779,0.779,0.7789,0.7792,0.7792,0.7792,0.7792,0.7785,0.7785,0,0,0,0,0,0,0.7783,0.7783,0.7783,0.7783,0.7784,0.7786,0.7786,0.7786,0.7788,0.7789,0.7788,0.7789,0.779,0.7791,0.7791,0.7787,0.7792,0.7792,0.7792,0.7785,0.7785,0.7785,0,0,0,0,0,0,0.7783,0.7783,0.7783,0.7783,0.7783,0.7786,0.7785,0.7786,0.7786,0.7788,0.7789,0.7788,0.7791,0.7791,0.7789,0.7787,0.7792,0.7792,0.7785,0.7785,0.7785,0.778,0,0,0,0,0,0,0.7783,0.7783,0.7781,0.7783,0.7783,0.7781,0.7785,0.7786,0.7786,0.7786,0.7788,0.7789,0.7791,0.7789,0.7789,0.7787,0.7792,0.7786,0.7785,0.7785,0.778,0.7779,0.7779,0,0,0,0,0,0.7783,0.778,0.7781,0.7781,0.7782,0.7781,0.7781,0.7784,0.7786,0.7784,0.7786,0.7789,0.7787,0.7789,0.7789,0.7787,0.7786,0.7785,0.7785,0.778,0.778,0.7779,0,0,0,0,0,0,0.7777,0.778,0.7782,0.7779,0.778,0.7782,0.778,0.7782,0.7783,0.7783,0.7786,0.7787,0.7785,0.7786,0.7787,0.7784,0.7787,0.7787,0.7784,0.7783,0.7782,0.7782,0.7792,0,0,0,0,0,0.7776,0.7775,0.7777,0.7775,0.7775,0.7778,0.7778,0.7779,0.778,0.7781,0.7782,0.7783,0.7783,0.7783,0.7783,0.778,0.7781,0.7779,0.7778,0.7778,0.7777,0.7776,0.7776,0.7784,0.7784,0.7784,0,0,0.7773,0.7774,0.7774,0.7774,0.7775,0.7774,0.7778,0.7777,0.7777,0.7781,0.7779,0.778,0.7782,0.778,0.7779,0.778,0.7775,0.7777,0.7777,0.7777,0.7776,0.7775,0.7775,0.7783,0.7783,0.7783,0,0,0.7767,0.7768,0.7766,0.7767,0.7768,0.777,0.7769,0.7771,0.7772,0.7771,0.7774,0.7774,0.7773,0.7774,0.7774,0.7769,0.7772,0.7769,0.7766,0.7765,0.7764,0.7764,0.7762,0.7762,0.7769,0.7769,0.7769,0,0.7764,0.7763,0.7765,0.7764,0.7764,0.7768,0.7766,0.7767,0.7768,0.7768,0.777,0.777,0.7771,0.7769,0.7768,0.7768,0.7768,0.7769,0.7764,0.7764,0.7763,0.7762,0.7761,0.7769,0.7769,0.7769,0.7769,0,0.7758,0.7758,0.7756,0.7757,0.7757,0.7756,0.7758,0.7758,0.776,0.7761,0.776,0.7761,0.7762,0.7762,0.7763,0.7761,0.7761,0.7764,0.7767,0.7762,0.7761,0.776,0.7768,0.7768,0.7768,0.7768,0,0,0.775,0.7752,0.7752,0.7752,0.7754,0.7753,0.7752,0.7753,0.7753,0.7753,0.7753,0.7752,0.7754,0.7755,0.7757,0.7756,0.7752,0.7758,0.7758,0.7757,0.7749,0.7748,0.7747,0.7754,0.7753,0.7753,0.7749,0,0.7745,0.7743,0.7745,0.7743,0.7743,0.7746,0.7745,0.7746,0.7748,0.7748,0.7749,0.7749,0.7751,0.7752,0.7751,0.7753,0.7751,0.7753,0.7753,0.7753,0.7753,0.7747,0.7745,0.7742,0.7749,0.7749,0.7749,0,0.7739,0.7739,0.7737,0.7739,0.7739,0.7738,0.7739,0.7739,0.774,0.7741,0.7742,0.7744,0.7743,0.7746,0.7745,0.7747,0.7747,0.7748,0.7748,0.7748,0.7751,0.7747,0.774,0.774,0.7748,0.7748,0.7748,0,0.7733,0.7733,0.7732,0.7733,0.7735,0.7734,0.7735,0.7736,0.7737,0.7737,0.7737,0.7738,0.7738,0.7739,0.7741,0.7743,0.774,0.7743,0.7741,0.7741,0.7741,0.7741,0.7734,0.774,0.774,0.7741,0.7741,0,0.7728,0.7727,0.773,0.7729,0.7728,0.773,0.7729,0.773,0.7731,0.7731,0.7734,0.7734,0.7737,0.7737,0.7739,0.7738,0.7738,0.7739,0.774,0.7739,0.7739,0.7739,0.774,0.774,0.774,0.774,0.774,0,0.7722,0.7724,0.7723,0.7725,0.7725,0.7724,0.7726,0.7726,0.7727,0.7727,0.7727,0.7729,0.773,0.7732,0.7733,0.7734,0.7733,0.7734,0.7732,0.7733,0.7731,0.7732,0.7725,0.7724,0.7731,0.773,0.773,0,0.7718,0.7718,0.772,0.772,0.772,0.772,0.772,0.7723,0.7723,0.7725,0.7724,0.7724,0.7725,0.7725,0.7727,0.7728,0.7729,0.7727,0.7729,0.7729,0.7729,0.773,0.773,0.7726,0.7726,0.7726,0.7726,0,0.7712,0.7713,0.7714,0.7714,0.7715,0.7715,0.7716,0.7716,0.7719,0.7719,0.7719,0.7719,0.772,0.7721,0.7722,0.7723,0.7725,0.7725,0.7725,0.7725,0.7724,0.7725,0.7731,0.7725,0.7726,0.7726,0.7726,0.7726,0.7708,0.7707,0.7709,0.7709,0.771,0.771,0.771,0.7712,0.7712,0.7713,0.7714,0.7714,0.7716,0.7717,0.7718,0.7719,0.772,0.7719,0.7719,0.7719,0.7719,0.7724,0.7719,0.7719,0.7719,0.7719,0.7719,0,0.7702,0.7703,0.7703,0.7705,0.7705,0.7707,0.7708,0.7708,0.7708,0.7709,0.7709,0.771,0.771,0.7712,0.7713,0.7713,0.7714,0.7713,0.7713,0.7714,0.7718,0.7718,0.7712,0.7712,0.7712,0.7712,0.7712,0.7712,0.7699,0.7699,0.77,0.77,0.7701,0.7701,0.7701,0.7702,0.7703,0.7703,0.7704,0.7705,0.7707,0.7708,0.7708,0.7709,0.7709,0.7708,0.7709,0.7713,0.7713,0.7714,0.7714,0.7708,0.7708,0.7705,0.7705,0.7705]}]]